EW8016 Weather Reports


time (UTC)temp
C
wind
direction
speed
KPH
gust
KPH
rain 1hr
cm
rain 24hr
cm
rain mn
cm
humidity
%
barometer
mb
20260502195508 19 11 0.0 3.2 0.00 0.00 0.00 73 1014.6
20260502195008 19 11 0.0 4.8 0.00 0.00 0.00 72 1014.6
20260502194718 19 11 1.6 4.8 0.00 0.00 0.00 72 1014.6
20260502194221 20 350 1.6 6.4 0.00 0.00 0.00 71 1014.6
20260502193503 20 335 1.6 6.4 0.00 0.00 0.00 70 1014.5
20260502193005 20 337 1.6 6.4 0.00 0.00 0.00 70 1014.4
20260502192503 20 340 3.2 8.0 0.00 0.00 0.00 69 1014.5
20260502192005 20 348 3.2 8.0 0.00 0.00 0.00 68 1014.4
20260502191503 21 354 3.2 8.0 0.00 0.00 0.00 66 1014.3
20260502191003 21 351 3.2 12.9 0.00 0.00 0.00 65 1014.4
20260502190505 21 341 4.8 12.9 0.00 0.00 0.00 63 1014.4
20260502190003 21 341 3.2 12.9 0.00 0.00 0.00 61 1014.3
20260502185503 22 355 0.0 12.9 0.00 0.00 0.00 59 1014.1
20260502185004 22 0 0.0 0.0 0.00 0.00 0.00 58 1014.2
20260502184503 22 0 0.0 0.0 0.00 0.00 0.00 58 1014.2
20260502184218 22 0 0.0 0.0 0.00 0.00 0.00 57 1014.2
20260502183504 22 0 0.0 0.0 0.00 0.00 0.00 57 1014.3
20260502183003 22 0 0.0 0.0 0.00 0.00 0.00 56 1014.3
20260502182717 22 229 0.0 1.6 0.00 0.00 0.00 56 1014.3
20260502182003 22 284 1.6 6.4 0.00 0.00 0.00 56 1014.3
20260502181504 23 291 1.6 6.4 0.00 0.00 0.00 56 1014.3
20260502181003 23 291 1.6 6.4 0.00 0.00 0.00 55 1014.3
20260502180505 23 286 3.2 6.4 0.00 0.00 0.00 55 1014.2
20260502170505 25 198 4.8 11.3 0.00 0.00 0.00 49 1014.5
20260502164006 25 179 3.2 9.7 0.00 0.00 0.00 50 1014.8
20260502163506 25 163 3.2 8.0 0.00 0.00 0.00 50 1014.8
20260502163217 25 150 3.2 9.7 0.00 0.00 0.00 51 1014.8
20260502162510 25 163 3.2 16.1 0.00 0.00 0.00 50 1015.0
20260502162003 25 164 3.2 11.3 0.00 0.00 0.00 51 1015.0
20260502161716 25 161 4.8 11.3 0.00 0.00 0.00 51 1015.1
20260502161224 25 166 4.8 16.1 0.00 0.00 0.00 52 1015.1
20260502160503 25 154 6.4 16.1 0.00 0.00 0.00 50 1015.2
20260502152217 25 228 4.8 14.5 0.00 0.00 0.00 49 1015.6
20260502151504 25 244 4.8 16.1 0.00 0.00 0.00 49 1015.6
20260502151005 25 226 4.8 16.1 0.00 0.00 0.00 48 1015.7
20260502150503 25 193 4.8 14.5 0.00 0.00 0.00 48 1015.8
20260502130503 25 244 9.7 22.5 0.00 0.00 0.00 48 1017.1
20260502123505 25 210 9.7 22.5 0.00 0.00 0.00 48 1017.3
20260502123006 25 223 8.0 22.5 0.00 0.00 0.00 48 1017.4
20260502122503 25 191 8.0 19.3 0.00 0.00 0.00 48 1017.4
20260502122003 25 183 6.4 17.7 0.00 0.00 0.00 48 1017.4
20260502121507 25 172 8.0 20.9 0.00 0.00 0.00 48 1017.4
20260502121007 25 168 11.3 24.1 0.00 0.00 0.00 47 1017.6
20260502120503 25 170 8.0 24.1 0.00 0.00 0.00 46 1017.6
20260502115505 25 231 8.0 22.5 0.00 0.00 0.00 47 1017.6
20260502115004 25 245 9.7 22.5 0.00 0.00 0.00 47 1017.6
20260502114503 25 206 8.0 20.9 0.00 0.00 0.00 48 1017.7
20260502114003 25 186 9.7 20.9 0.00 0.00 0.00 47 1017.7
20260502113503 25 201 9.7 20.9 0.00 0.00 0.00 46 1017.8
20260502113005 25 208 9.7 19.3 0.00 0.00 0.00 46 1017.7
20260502112504 25 188 9.7 19.3 0.00 0.00 0.00 46 1017.8
20260502112004 25 176 9.7 20.9 0.00 0.00 0.00 47 1017.8
20260502111717 25 172 9.7 20.9 0.00 0.00 0.00 46 1017.8
20260502111220 25 179 9.7 20.9 0.00 0.00 0.00 46 1017.9
20260502110504 25 193 8.0 20.9 0.00 0.00 0.00 46 1017.8
20260502110218 25 201 8.0 17.7 0.00 0.00 0.00 46 1017.9
20260502105504 25 194 8.0 24.1 0.00 0.00 0.00 46 1017.8
20260502105006 24 167 9.7 24.1 0.00 0.00 0.00 46 1017.9
20260502104503 25 173 9.7 20.9 0.00 0.00 0.00 46 1018.0
20260502104004 25 173 9.7 19.3 0.00 0.00 0.00 44 1018.1
20260502103504 25 168 9.7 19.3 0.00 0.00 0.00 44 1018.1
20260502103005 24 183 9.7 27.4 0.00 0.00 0.00 43 1018.2
20260502102503 24 188 8.0 27.4 0.00 0.00 0.00 42 1018.2
20260502102008 24 178 6.4 17.7 0.00 0.00 0.00 42 1018.2
20260502101505 24 169 6.4 17.7 0.00 0.00 0.00 42 1018.2
20260502101009 23 184 6.4 14.5 0.00 0.00 0.00 42 1018.3
20260502100720 23 210 6.4 17.7 0.00 0.00 0.00 41 1018.2
20260502091503 22 179 4.8 14.5 0.00 0.00 0.00 46 1018.5
20260502091003 21 183 4.8 12.9 0.00 0.00 0.00 46 1018.5
20260502090504 21 167 8.0 17.7 0.00 0.00 0.00 46 1018.5
20260502071504 17 163 6.4 11.3 0.00 0.00 0.00 54 1018.8
20260502071003 17 154 6.4 14.5 0.00 0.00 0.00 55 1019.0
20260502070503 17 158 6.4 14.5 0.00 0.00 0.00 56 1018.9
20260502070218 17 160 8.0 14.5 0.00 0.00 0.00 56 1019.0
20260502065719 16 157 8.0 12.9 0.00 0.00 0.00 57 1018.9
20260502065007 16 154 9.7 17.7 0.00 0.00 0.00 58 1018.9
20260502064508 16 156 8.0 17.7 0.00 0.00 0.00 59 1019.0
20260502064004 15 156 8.0 17.7 0.00 0.00 0.00 60 1019.1
20260502063719 15 156 8.0 17.7 0.00 0.00 0.00 60 1019.0
20260502063005 15 160 8.0 16.1 0.00 0.00 0.00 62 1019.0
20260502062504 14 162 8.0 14.5 0.00 0.00 0.00 63 1019.0
20260502062005 14 160 6.4 14.5 0.00 0.00 0.00 64 1019.1
20260502061717 13 159 8.0 14.5 0.00 0.00 0.00 64 1019.0
20260502061005 13 150 6.4 12.9 0.00 0.00 0.00 66 1019.0
20260502060504 12 156 6.4 12.9 0.00 0.00 0.00 68 1019.0
20260502060003 12 151 4.8 11.3 0.00 0.00 0.00 68 1018.9
20260502055503 12 144 4.8 11.3 0.00 0.00 0.00 69 1019.0
20260502055220 12 143 4.8 11.3 0.00 0.00 0.00 70 1018.9
20260502054504 11 140 4.8 11.3 0.00 0.00 0.00 71 1018.9
20260502054005 11 139 4.8 11.3 0.00 0.00 0.00 72 1019.1
20260502053504 11 143 4.8 9.7 0.00 0.00 0.00 73 1019.0
20260502053006 10 151 3.2 9.7 0.00 0.00 0.00 73 1019.0
20260502052506 10 153 3.2 8.0 0.00 0.00 0.00 73 1019.0
20260502052005 10 156 3.2 8.0 0.00 0.00 0.00 73 1019.1
20260502051507 10 157 3.2 6.4 0.00 0.00 0.00 73 1019.1
20260502051219 10 156 1.6 4.8 0.00 0.00 0.00 73 1019.1
20260502050503 10 156 1.6 4.8 0.00 0.00 0.00 73 1019.1
20260502050005 10 156 1.6 3.2 0.00 0.00 0.00 73 1019.2
20260502045503 9 156 1.6 4.8 0.00 0.00 0.00 74 1019.2
20260502045006 9 156 3.2 4.8 0.00 0.00 0.00 74 1019.2
20260502044503 9 156 1.6 4.8 0.00 0.00 0.00 73 1019.1
20260502044004 9 156 1.6 3.2 0.00 0.00 0.00 73 1019.0
20260502043503 9 156 1.6 3.2 0.00 0.00 0.00 73 1019.0
20260502043005 9 156 1.6 3.2 0.00 0.00 0.00 72 1019.1
20260502042505 9 156 1.6 3.2 0.00 0.00 0.00 72 1019.1
20260502042003 10 156 1.6 4.8 0.00 0.00 0.00 72 1019.2
20260502041503 10 156 3.2 4.8 0.00 0.00 0.00 72 1019.1
20260502041005 10 148 3.2 6.4 0.00 0.00 0.00 71 1019.2
20260502040504 10 138 3.2 6.4 0.00 0.00 0.00 71 1019.3
20260502040003 10 135 3.2 6.4 0.00 0.00 0.00 71 1019.3
20260502035503 10 135 3.2 6.4 0.00 0.00 0.00 71 1019.3
20260502035005 10 135 1.6 4.8 0.00 0.00 0.00 71 1019.3
20260502034722 10 135 1.6 4.8 0.00 0.00 0.00 71 1019.4
20260502034010 10 0 0.0 0.0 0.00 0.00 0.00 70 1019.3
20260502033503 10 0 0.0 0.0 0.00 0.00 0.00 70 1019.4
20260502033005 10 0 0.0 0.0 0.00 0.00 0.00 70 1019.5
20260502032504 10 0 0.0 0.0 0.00 0.00 0.00 69 1019.4
20260502032005 10 0 0.0 0.0 0.00 0.00 0.00 69 1019.4
20260502031720 10 0 0.0 0.0 0.00 0.00 0.00 69 1019.5
20260502031005 10 0 0.0 0.0 0.00 0.00 0.00 68 1019.4
20260502030718 10 0 0.0 0.0 0.00 0.00 0.00 68 1019.5
20260502030003 10 135 1.6 3.2 0.00 0.00 0.00 68 1019.6
20260502025504 10 135 1.6 3.2 0.00 0.00 0.00 68 1019.7
20260502025006 10 135 1.6 4.8 0.00 0.00 0.00 67 1019.6
20260502024721 10 135 1.6 4.8 0.00 0.00 0.00 67 1019.6
20260502024004 11 135 1.6 3.2 0.00 0.00 0.00 67 1019.6
20260502023503 11 135 1.6 3.2 0.00 0.00 0.00 66 1019.6
20260502023003 11 135 3.2 4.8 0.00 0.00 0.00 66 1019.6
20260502022504 11 135 3.2 4.8 0.00 0.00 0.00 66 1019.7
20260502022006 11 135 3.2 4.8 0.00 0.00 0.00 66 1019.7
20260502021717 11 135 3.2 4.8 0.00 0.00 0.00 66 1019.7
20260502021006 11 135 3.2 4.8 0.00 0.00 0.00 65 1019.7
20260502020719 11 135 3.2 4.8 0.00 0.00 0.00 65 1019.7
20260502020003 11 135 3.2 4.8 0.00 0.00 0.00 65 1019.8
20260502015505 11 135 1.6 4.8 0.00 0.00 0.00 65 1019.9
20260502015218 11 135 1.6 4.8 0.00 0.00 0.00 65 1019.8
20260502014503 11 135 1.6 4.8 0.00 0.00 0.00 64 1019.9
20260502014218 11 135 1.6 4.8 0.00 0.00 0.00 64 1020.0
20260502013503 11 135 3.2 4.8 0.00 0.00 0.00 64 1020.0
20260502013008 11 135 1.6 4.8 0.00 0.00 0.00 64 1020.0
20260502012503 11 135 1.6 4.8 0.00 0.00 0.00 64 1020.1
20260502012003 11 135 1.6 4.8 0.00 0.00 0.00 63 1020.2
20260502011719 11 135 1.6 4.8 0.00 0.00 0.00 63 1020.2
20260502011003 12 135 0.0 4.8 0.00 0.00 0.00 63 1020.3
20260502010505 12 135 0.0 3.2 0.00 0.00 0.00 62 1020.3
20260502010003 12 135 0.0 3.2 0.00 0.00 0.00 62 1020.5
20260502005719 12 135 0.0 3.2 0.00 0.00 0.00 61 1020.5
20260502005003 12 135 1.6 4.8 0.00 0.00 0.00 61 1020.5
20260502004503 12 135 1.6 3.2 0.00 0.00 0.00 61 1020.6
20260502004006 12 135 0.0 3.2 0.00 0.00 0.00 61 1020.6
20260502003503 12 140 1.6 6.4 0.00 0.00 0.00 60 1020.7
20260502003004 12 144 1.6 6.4 0.00 0.00 0.00 61 1020.6
20260502002506 12 147 3.2 4.8 0.00 0.00 0.00 61 1020.6
20260502002003 12 147 1.6 4.8 0.00 0.00 0.00 61 1020.7
20260502001716 12 147 0.0 3.2 0.00 0.00 0.00 61 1020.8
20260502001006 12 147 0.0 4.8 0.00 0.00 0.00 61 1020.9
20260502000503 12 147 0.0 4.8 0.00 0.00 0.00 61 1020.9
20260502000007 12 147 0.0 3.2 0.00 0.00 0.00 60 1020.8
20260501235503 12 147 0.0 3.2 0.00 0.00 0.00 60 1020.8
20260501235006 12 147 0.0 4.8 0.00 0.00 0.00 60 1020.9
20260501234716 12 147 0.0 4.8 0.00 0.00 0.00 60 1020.9
20260501234005 12 140 1.6 4.8 0.00 0.00 0.00 59 1021.0
20260501233504 12 140 1.6 4.8 0.00 0.00 0.00 59 1020.9
20260501233004 13 140 0.0 4.8 0.00 0.00 0.00 59 1021.0
20260501232505 13 0 0.0 0.0 0.00 0.00 0.00 59 1021.0
20260501232003 13 156 0.0 3.2 0.00 0.00 0.00 59 1021.0
20260501231504 13 156 1.6 8.0 0.00 0.00 0.00 59 1021.0
20260501231005 12 156 1.6 8.0 0.00 0.00 0.00 59 1021.1
20260501230718 12 156 1.6 4.8 0.00 0.00 0.00 59 1021.0
20260501230003 12 156 1.6 8.0 0.00 0.00 0.00 59 1021.1
20260501225503 12 157 1.6 8.0 0.00 0.00 0.00 59 1021.0
20260501225004 12 158 1.6 8.0 0.00 0.00 0.00 60 1021.2
20260501224718 12 158 1.6 3.2 0.00 0.00 0.00 60 1021.2
20260501224003 12 0 0.0 0.0 0.00 0.00 0.00 62 1021.2
20260501223507 12 0 0.0 0.0 0.00 0.00 0.00 64 1021.3
20260501223003 12 0 0.0 0.0 0.00 0.00 0.00 64 1021.3
20260501222508 12 0 0.0 0.0 0.00 0.00 0.00 63 1021.3
20260501222003 12 0 0.0 0.0 0.00 0.00 0.00 63 1021.3
20260501221503 12 0 0.0 0.0 0.00 0.00 0.00 63 1021.3
20260501221005 13 0 0.0 0.0 0.00 0.00 0.00 62 1021.4
20260501220505 13 0 0.0 0.0 0.00 0.00 0.00 62 1021.5
20260501220003 13 0 0.0 0.0 0.00 0.00 0.00 62 1021.4
20260501215505 13 0 0.0 0.0 0.00 0.00 0.00 62 1021.5
20260501215003 13 0 0.0 0.0 0.00 0.00 0.00 62 1021.5
20260501214507 13 0 0.0 0.0 0.00 0.00 0.00 61 1021.4
20260501214006 13 0 0.0 0.0 0.00 0.00 0.00 61 1021.6
20260501213513 13 0 0.0 0.0 0.00 0.00 0.00 61 1021.6
20260501213217 13 0 0.0 0.0 0.00 0.00 0.00 61 1021.6
20260501212503 13 0 0.0 0.0 0.00 0.00 0.00 60 1021.6
20260501212003 13 0 0.0 0.0 0.00 0.00 0.00 61 1021.6
20260501211503 13 0 0.0 0.0 0.00 0.00 0.00 60 1021.7
20260501211216 14 0 0.0 0.0 0.00 0.00 0.00 60 1021.7
20260501210510 14 0 0.0 0.0 0.00 0.00 0.00 59 1021.7
20260501210005 14 0 0.0 0.0 0.00 0.00 0.00 59 1021.7
20260501205505 14 0 0.0 0.0 0.00 0.00 0.00 59 1021.8
20260501205003 15 0 0.0 0.0 0.00 0.00 0.00 58 1021.8
20260501204506 15 0 0.0 0.0 0.00 0.00 0.00 57 1021.8
20260501204005 15 0 0.0 0.0 0.00 0.00 0.00 57 1021.9
20260501203503 15 0 0.0 0.0 0.00 0.00 0.00 56 1021.9
20260501203006 15 0 0.0 0.0 0.00 0.00 0.00 55 1021.9
20260501202503 16 0 0.0 0.0 0.00 0.00 0.00 54 1021.9
20260501202003 16 0 0.0 0.0 0.00 0.00 0.00 54 1022.0
20260501201505 16 0 0.0 0.0 0.00 0.00 0.00 53 1022.0
20260501201218 16 0 0.0 0.0 0.00 0.00 0.00 53 1022.1
20260501200717 16 0 0.0 0.0 0.00 0.00 0.00 51 1022.0